| time (UTC) | temp F | wind direction | speed MPH | gust MPH | rain 1hr in | rain 24hr in | rain mn in | humidity % | barometer mb |
| 20260505003015 | 63 | 276 | 0.0 | 0.0 | 0.00 | 0.00 | 0.00 | 50 | 1002.2 |
| 20260505001516 | 65 | 275 | 0.0 | 0.0 | 0.00 | 0.00 | 0.00 | 44 | 1002.1 |
| 20260505000017 | 68 | 275 | 0.0 | 0.0 | 0.00 | 0.00 | 0.00 | 39 | 1002.1 |
| 20260504234518 | 72 | 276 | 0.0 | 0.0 | 0.00 | 0.00 | 0.00 | 33 | 1002.0 |
| 20260504233019 | 74 | 275 | 0.0 | 0.0 | 0.00 | 0.00 | 0.00 | 30 | 1001.9 |
| 20260504231512 | 75 | 224 | 0.0 | 0.0 | 0.00 | 0.00 | 0.00 | 28 | 1001.8 |
| 20260504230012 | 75 | 266 | 0.0 | 0.0 | 0.00 | 0.00 | 0.00 | 28 | 1001.9 |
| 20260504224511 | 75 | 241 | 0.0 | 0.0 | 0.00 | 0.00 | 0.00 | 27 | 1002.0 |
| 20260504223010 | 75 | 274 | 0.0 | 4.0 | 0.00 | 0.00 | 0.00 | 27 | 1002.1 |
| 20260504221508 | 75 | 214 | 0.0 | 9.0 | 0.00 | 0.00 | 0.00 | 27 | 1002.2 |
| 20260504220007 | 76 | 157 | 0.0 | 8.0 | 0.00 | 0.00 | 0.00 | 27 | 1002.1 |
| 20260504214506 | 76 | 241 | 0.0 | 4.0 | 0.00 | 0.00 | 0.00 | 29 | 1002.2 |
| 20260504213013 | 75 | 307 | 2.0 | 8.0 | 0.00 | 0.00 | 0.00 | 28 | 1002.4 |
| 20260504211501 | 75 | 236 | 0.0 | 11.0 | 0.00 | 0.00 | 0.00 | 30 | 1002.4 |
| 20260504210100 | 75 | 240 | 0.0 | 7.0 | 0.00 | 0.00 | 0.00 | 31 | 1002.6 |
| 20260504204558 | 75 | 281 | 0.0 | 10.0 | 0.00 | 0.00 | 0.00 | 31 | 1002.6 |
| 20260504203056 | 75 | 296 | 0.0 | 6.0 | 0.00 | 0.00 | 0.00 | 33 | 1002.7 |
| 20260504201555 | 75 | 288 | 0.0 | 2.0 | 0.00 | 0.00 | 0.00 | 33 | 1002.8 |
| 20260504200051 | 73 | 108 | 0.0 | 10.0 | 0.00 | 0.00 | 0.00 | 34 | 1003.0 |
| 20260504194553 | 73 | 356 | 0.0 | 8.0 | 0.00 | 0.00 | 0.00 | 36 | 1003.4 |
| 20260504193048 | 73 | 333 | 0.0 | 10.0 | 0.00 | 0.00 | 0.00 | 35 | 1003.6 |
| 20260504191607 | 73 | 212 | 0.0 | 5.0 | 0.00 | 0.00 | 0.00 | 36 | 1003.8 |
| 20260504190042 | 72 | 281 | 0.0 | 14.0 | 0.00 | 0.00 | 0.00 | 36 | 1004.1 |
| 20260504184553 | 72 | 271 | 0.0 | 6.0 | 0.00 | 0.00 | 0.00 | 37 | 1004.2 |
| 20260504183038 | 72 | 254 | 0.0 | 7.0 | 0.00 | 0.00 | 0.00 | 38 | 1004.2 |
| 20260504181536 | 71 | 233 | 0.0 | 11.0 | 0.00 | 0.00 | 0.00 | 39 | 1004.3 |
| 20260504180036 | 71 | 229 | 0.0 | 10.0 | 0.00 | 0.00 | 0.00 | 39 | 1004.5 |
| 20260504174533 | 70 | 278 | 1.0 | 11.0 | 0.00 | 0.00 | 0.00 | 39 | 1004.5 |
| 20260504173032 | 70 | 252 | 0.0 | 17.0 | 0.00 | 0.00 | 0.00 | 41 | 1004.6 |
| 20260504171529 | 70 | 131 | 0.0 | 7.0 | 0.00 | 0.00 | 0.00 | 39 | 1004.5 |
| 20260504140103 | 60 | 212 | 0.0 | 8.0 | 0.00 | 0.00 | 0.00 | 45 | 1006.2 |
| 20260504081513 | 51 | 226 | 0.0 | 0.0 | 0.00 | 0.00 | 0.00 | 52 | 1007.0 |
| 20260504050106 | 52 | 225 | 0.0 | 0.0 | 0.00 | 0.00 | 0.00 | 54 | 1007.6 |
| 20260504044556 | 52 | 134 | 0.0 | 0.0 | 0.00 | 0.00 | 0.00 | 55 | 1007.6 |
| 20260504043103 | 52 | 235 | 0.0 | 0.0 | 0.00 | 0.00 | 0.00 | 55 | 1007.7 |
| 20260504041553 | 52 | 214 | 0.0 | 0.0 | 0.00 | 0.00 | 0.00 | 55 | 1007.7 |
| 20260504040050 | 51 | 138 | 0.0 | 0.0 | 0.00 | 0.00 | 0.00 | 55 | 1007.8 |
| 20260504034554 | 51 | 234 | 0.0 | 0.0 | 0.00 | 0.00 | 0.00 | 55 | 1007.9 |
| 20260504033054 | 51 | 236 | 0.0 | 0.0 | 0.00 | 0.00 | 0.00 | 55 | 1008.0 |
| 20260504031542 | 51 | 236 | 0.0 | 0.0 | 0.00 | 0.00 | 0.00 | 55 | 1008.0 |
| 20260504030033 | 51 | 241 | 0.0 | 0.0 | 0.00 | 0.00 | 0.00 | 55 | 1008.1 |
| 20260504024535 | 51 | 117 | 0.0 | 0.0 | 0.00 | 0.00 | 0.00 | 55 | 1008.2 |
| 20260504023024 | 51 | 236 | 0.0 | 0.0 | 0.00 | 0.00 | 0.00 | 55 | 1008.6 |
| 20260504021519 | 52 | 246 | 0.0 | 0.0 | 0.00 | 0.00 | 0.00 | 55 | 1008.9 |
| 20260504020015 | 52 | 290 | 1.0 | 13.0 | 0.00 | 0.00 | 0.00 | 55 | 1009.2 |
| 20260504014511 | 54 | 255 | 2.0 | 13.0 | 0.00 | 0.00 | 0.00 | 51 | 1009.4 |
| 20260504013009 | 55 | 318 | 0.0 | 8.0 | 0.00 | 0.00 | 0.00 | 47 | 1008.9 |
| 20260504011502 | 56 | 305 | 0.0 | 12.0 | 0.00 | 0.00 | 0.00 | 46 | 1008.6 |
| 20260504010100 | 56 | 238 | 2.0 | 12.0 | 0.00 | 0.00 | 0.00 | 44 | 1008.7 |
| 20260504004600 | 56 | 240 | 0.0 | 6.0 | 0.00 | 0.00 | 0.00 | 44 | 1008.4 |